Vertical_Velocity
-8 -6 -5 -2 2 -9 -5 -5 -0 -8 -4 6 -3 -6 -2 -2 -2 -4 -3 -2 0 -3 -4 -1 2 1 2 3 3 3 1 2 3 22 9 18 8 -4 3 13 3 3 -11 -17
-7 -3 -4 -3 -5 -5 -4 -2 -3 -3 -5 -5 -12 -13 -4 -1 1 2 -0 -1 -3 -5 -1 -1 -2 -1 2 0 3 2 0 -1 4 3 15 -7 16 24 3 2 5 1 10 -7
-4 -4 -2 -1 -6 -5 -4 -10 -8 -2 -3 -8 -5 -0 -3 -7 -3 -3 -1 -3 -0 -1 -1 -1 -2 -3 -2 -0 -1 1 6 6 2 3 2 4 7 3 23 17 14 -1 5 -2
-3 -6 -3 -7 -5 -7 -8 -0 -5 -5 -2 -0 -7 -9 -9 -2 -5 -1 -4 -3 -0 -4 -3 0 -0 0 0 -2 -2 -2 2 4 2 3 0 1 3 4 -8 12 2 5 -7 5
-6 -3 -5 -4 -5 -7 -5 3 -4 -5 -4 -4 -1 -2 -1 -2 -5 -2 -2 -3 -4 -4 -1 -2 -1 -3 1 0 0 -0 -5 -5 1 1 -2 1 2 -2 -0 2 5 6 -2 -5
-8 -1 -2 -5 -5 -7 -6 -7 -4 -5 -5 -5 -2 -3 -0 -1 -1 -1 -1 -3 -2 -1 0 -1 -1 -1 -1 -3 1 2 -1 -5 0 -3 1 -1 -1 4 6 8 5 7 11 -2
-7 -0 -3 -7 -5 -5 -7 -5 -6 -6 -10 -13 -7 4 -4 -5 -2 -1 0 0 1 -1 -0 -1 -1 -1 -1 -1 -1 -1 1 1 -1 -0 -9 3 4 2 4 2 0 4 3 -4
-5 -2 -3 -5 -4 -7 -4 -5 -5 -4 -6 -6 -1 -4 1 -4 -1 -2 -1 -1 -0 -0 -0 -4 -5 -4 -2 -1 -3 -2 -1 -2 -2 2 0 -3 1 -0 3 0 -0 -2 -1 -3
-3 -1 -5 -5 -3 -6 -10 -6 -4 -5 -5 -11 -6 -0 -2 -3 -3 -2 0 0 -1 -1 -4 -4 0 1 -2 0 -1 -1 -0 -1 0 -1 -1 -1 1 -3 -3 -16 -0 -1 4 4
-4 -2 -3 -6 -4 -0 1 -8 -6 -4 -1 -2 4 8 -3 -5 -4 -3 -3 -1 -4 -3 -1 -0 -0 -1 -2 -3 -1 -1 -0 -0 -0 0 0 -0 -3 -4 -3 -3 -11 -4 -7 -8
-5 -5 -3 -4 -4 -5 -3 1 -4 -4 -4 -3 -5 -6 -5 -3 -1 1 0 -5 -0 -0 -0 -0 1 -3 -3 -2 -1 -1 0 1 1 1 1 -1 1 0 -2 -1 -1 -3 -7 -8
-6 -5 -4 -4 -3 -2 -5 -8 -6 -2 -4 -1 -4 -3 -3 -1 -3 -1 -1 -3 -2 -0 0 -3 -4 -1 -2 -2 -2 -1 -5 -0 0 -0 -0 0 1 1 1 -1 -2 -1 1 3
-6 -7 -5 -4 -4 -3 -3 -3 -3 -5 -6 -7 -14 -1 -1 -6 -0 -3 -3 -3 -2 3 -0 -1 -2 -0 -2 0 -3 -1 -1 -2 -0 2 -0 -0 0 0 1 1 0 0 1 3
-5 -5 -6 -6 -5 -2 -4 -5 -3 -2 -3 -2 1 -1 -2 1 -2 -2 -3 -4 -2 -3 -0 -1 -0 1 3 -1 -3 -1 -0 0 -1 1 1 -1 0 0 -0 -0 -1 -1 -1 -1
-3 -6 -5 -4 -6 -3 -5 -5 -2 -1 -2 0 -3 -0 1 -0 -2 -1 -2 -4 -1 1 -2 -2 -2 0 2 1 -0 -1 -0 0 -3 0 2 2 2 1 2 1 -1 -1 -0 -0
-3 -5 -5 -4 -3 -2 1 1 -3 -4 -6 -6 -5 -1 -3 -2 -2 -1 -2 -1 -2 -2 -0 -1 -1 -1 -0 -1 1 1 1 1 -0 -1 -2 -0 0 1 1 3 3 2 -0 -1
-3 -5 -5 -7 -6 -1 -4 -6 -3 -3 -2 -3 -1 -3 -3 -2 -1 -2 -1 -1 -1 -1 -2 -2 -0 -0 0 -0 -0 1 1 1 -0 -1 -3 -2 -1 -2 -2 -0 0 -1 -0 0
-2 -4 -4 -5 -4 -4 -3 -4 -2 -2 -2 -2 -5 -2 -1 -1 -0 -1 -0 -0 -1 -1 -1 -1 -1 -0 -0 -1 -0 0 0 0 2 4 4 3 -0 -1 -3 -2 -1 1 1 -1
-0 -2 -3 -4 -4 -4 -2 -2 -3 -4 -4 -3 -4 -2 -2 -1 1 -0 1 -0 0 2 1 0 0 -0 0 0 -1 -1 -0 0 -2 -1 -1 -2 -0 -0 2 0 -2 -1 2 1
-0 -1 -2 0 -3 -3 -2 1 -2 -0 0 -3 0 0 -1 -1 -2 1 1 1 1 0 1 -0 -0 0 0 -0 -0 -0 -1 -1 -1 -1 -3 -4 -3 -2 -3 -2 -1 -1 -1 1
0 -1 -2 0 -2 -1 1 -4 -4 -3 -4 -3 -0 -2 -1 -0 -0 -1 -0 -1 2 3 2 2 1 1 2 2 2 1 -1 -1 1 -0 1 2 2 1 0 -1 -1 0 -2 -3
-2 -3 2 0 -2 -4 -10 -5 -0 -4 -4 -1 -0 2 -1 -2 1 -1 -3 1 -2 -1 -0 3 5 3 1 1 1 4 3 1 1 2 0 1 2 1 -1 -1 1 1 0 -1
-0 -2 -2 -2 1 1 -2 -5 2 -1 1 0 1 -2 -2 -2 -4 0 -3 -4 -1 0 1 0 1 2 2 3 2 -2 2 2 1 -1 -0 0 -1 2 3 -1 -2 -0 2 2
-2 -1 0 -2 -2 -1 -3 -0 -0 1 3 -1 1 -1 -2 0 1 -1 -1 -3 -1 -2 -1 3 2 2 2 2 1 2 -1 -1 -0 1 -0 -1 -1 -3 -1 2 1 -2 -1 -0
-2 -1 -1 1 1 2 1 -0 0 -1 -0 -0 1 2 5 1 1 -1 -3 -1 -1 4 5 2 1 1 2 2 1 2 0 0 -1 -1 -0 -1 -1 -2 -4 -3 -1 -1 -1 -1
1 2 2 3 3 2 1 -0 -1 -1 -1 0 -0 -1 -6 -2 2 -2 2 3 1 -0 -1 1 2 0 -0 1 0 0 1 1 1 -1 -1 -0 -1 0 -0 -3 -2 -3 -0 -1
-0 0 -0 0 3 0 -1 0 -1 0 -2 0 -1 -5 -1 1 -4 -1 1 -1 -1 -1 0 -0 -0 1 2 3 1 -1 -1 0 -0 1 -0 -1 -1 -0 1 1 -2 -2 -2 -1
Height
5667 5648 5625 5600 5575 5550 5533 5515 5499 5480 5468 5468 5458 5450 5444 5439 5435 5431 5428 5424 5421 5418 5415 5413 5413 5414 5415 5419 5424 5433 5439 5448 5455 5459 5465 5475 5478 5486 5496 5498 5505 5511 5510 5519
5658 5637 5613 5588 5565 5545 5528 5510 5492 5478 5471 5466 5456 5450 5445 5441 5437 5433 5429 5425 5421 5418 5416 5414 5410 5410 5412 5413 5417 5422 5429 5436 5443 5448 5454 5465 5468 5475 5483 5491 5496 5500 5505 5509
5650 5628 5604 5579 5558 5542 5525 5506 5491 5480 5473 5466 5461 5455 5450 5443 5438 5434 5430 5426 5423 5420 5417 5414 5412 5410 5409 5410 5411 5415 5421 5427 5432 5439 5444 5451 5459 5462 5474 5481 5485 5490 5494 5502
5642 5620 5595 5572 5553 5538 5523 5506 5490 5480 5476 5471 5465 5458 5451 5446 5440 5437 5432 5430 5428 5425 5421 5418 5415 5413 5410 5410 5410 5411 5414 5418 5424 5429 5435 5442 5449 5455 5463 5469 5474 5480 5486 5491
5636 5613 5589 5569 5551 5536 5522 5506 5492 5482 5477 5473 5468 5462 5456 5450 5445 5440 5436 5433 5430 5427 5425 5422 5419 5415 5413 5411 5410 5410 5410 5413 5418 5423 5429 5435 5441 5447 5453 5458 5463 5469 5475 5484
5631 5608 5586 5567 5552 5539 5525 5506 5492 5485 5481 5477 5473 5466 5459 5453 5448 5444 5440 5436 5433 5429 5427 5423 5420 5417 5415 5413 5412 5411 5411 5410 5414 5418 5423 5429 5438 5441 5445 5449 5452 5457 5463 5472
5627 5605 5584 5566 5554 5541 5526 5509 5495 5487 5483 5480 5475 5469 5462 5456 5451 5447 5444 5440 5436 5433 5429 5425 5420 5416 5413 5412 5411 5411 5411 5411 5412 5414 5418 5425 5428 5432 5436 5440 5445 5447 5454 5463
5623 5602 5583 5567 5554 5542 5529 5513 5500 5491 5486 5481 5478 5473 5467 5461 5455 5450 5446 5442 5438 5434 5429 5424 5419 5415 5413 5410 5409 5410 5411 5411 5412 5414 5414 5417 5422 5425 5428 5431 5437 5442 5446 5452
5620 5601 5583 5567 5555 5544 5531 5518 5505 5495 5490 5486 5481 5477 5471 5466 5460 5454 5449 5445 5441 5437 5432 5429 5425 5419 5413 5411 5410 5410 5411 5412 5415 5415 5415 5416 5418 5419 5421 5423 5431 5435 5440 5444
5619 5601 5584 5569 5558 5548 5536 5523 5510 5499 5494 5489 5485 5481 5476 5470 5464 5459 5453 5448 5444 5440 5437 5433 5429 5423 5419 5415 5414 5413 5413 5414 5415 5415 5416 5416 5416 5416 5416 5424 5427 5428 5433 5438
5619 5601 5585 5571 5561 5551 5541 5529 5517 5506 5497 5493 5488 5483 5479 5474 5469 5464 5459 5454 5450 5445 5442 5438 5433 5429 5426 5422 5420 5418 5417 5416 5416 5415 5415 5416 5414 5415 5416 5417 5416 5418 5422 5427
5619 5602 5587 5574 5564 5554 5544 5534 5524 5514 5504 5497 5492 5487 5483 5478 5473 5468 5462 5458 5453 5450 5446 5442 5437 5434 5430 5427 5424 5423 5421 5420 5418 5418 5417 5415 5414 5414 5414 5414 5414 5414 5416 5417
5619 5604 5589 5576 5566 5557 5548 5538 5529 5520 5510 5502 5493 5489 5486 5481 5477 5472 5467 5462 5458 5455 5451 5448 5443 5441 5437 5434 5431 5428 5426 5423 5422 5422 5420 5419 5418 5416 5415 5414 5414 5414 5413 5413
5619 5605 5591 5579 5568 5560 5551 5542 5533 5525 5517 5509 5502 5494 5488 5484 5480 5475 5470 5466 5462 5459 5455 5451 5447 5445 5442 5439 5437 5434 5432 5430 5427 5425 5424 5422 5420 5418 5417 5416 5415 5414 5415 5415
5620 5607 5595 5582 5570 5561 5553 5545 5537 5530 5523 5515 5508 5501 5494 5487 5482 5477 5473 5469 5466 5462 5458 5454 5451 5448 5446 5442 5439 5437 5435 5432 5430 5428 5426 5424 5422 5421 5419 5417 5415 5414 5412 5412
5621 5610 5598 5586 5575 5565 5557 5550 5541 5533 5526 5519 5512 5505 5498 5491 5485 5479 5474 5471 5467 5464 5460 5456 5452 5449 5446 5443 5440 5438 5435 5433 5431 5428 5426 5424 5422 5420 5419 5417 5416 5414 5412 5410
5622 5611 5600 5589 5578 5569 5561 5552 5544 5536 5529 5523 5516 5509 5502 5496 5489 5483 5477 5472 5467 5463 5459 5455 5452 5449 5447 5443 5441 5438 5435 5432 5429 5426 5424 5422 5420 5418 5416 5414 5413 5412 5410 5407
5622 5612 5602 5592 5582 5572 5564 5555 5547 5539 5532 5525 5517 5512 5505 5498 5492 5486 5480 5475 5469 5464 5459 5454 5450 5447 5444 5440 5437 5434 5431 5429 5426 5423 5420 5418 5415 5414 5412 5410 5408 5406 5404 5402
5622 5612 5603 5595 5585 5575 5567 5557 5549 5541 5536 5527 5519 5513 5506 5500 5493 5487 5481 5475 5469 5464 5458 5453 5449 5445 5441 5437 5433 5429 5426 5423 5419 5416 5414 5411 5409 5406 5405 5403 5401 5398 5397 5396
5621 5612 5604 5596 5588 5578 5569 5561 5553 5545 5537 5528 5521 5514 5507 5501 5493 5487 5480 5474 5468 5461 5457 5451 5446 5441 5437 5432 5428 5424 5421 5418 5414 5410 5406 5403 5401 5399 5397 5395 5393 5391 5389 5387
5621 5612 5604 5596 5588 5580 5570 5562 5554 5545 5538 5530 5522 5514 5507 5500 5493 5485 5478 5471 5464 5458 5453 5446 5440 5435 5430 5426 5422 5418 5414 5411 5408 5405 5402 5399 5396 5392 5389 5387 5385 5384 5382 5379
5618 5610 5602 5594 5586 5578 5570 5561 5553 5544 5537 5530 5522 5514 5506 5498 5491 5483 5475 5468 5460 5453 5446 5441 5434 5429 5424 5419 5415 5411 5407 5404 5401 5398 5394 5391 5388 5386 5383 5380 5377 5376 5374 5371
5616 5608 5600 5592 5584 5576 5567 5560 5552 5544 5537 5529 5521 5513 5504 5495 5486 5478 5469 5460 5453 5445 5440 5433 5426 5419 5414 5410 5405 5401 5398 5395 5391 5389 5386 5384 5380 5378 5375 5372 5369 5367 5366 5364
5613 5605 5596 5588 5579 5572 5566 5558 5551 5544 5535 5527 5519 5510 5501 5491 5481 5470 5461 5453 5444 5437 5431 5424 5417 5411 5404 5400 5396 5392 5388 5385 5382 5379 5376 5374 5372 5369 5366 5364 5361 5359 5357 5355
5610 5601 5593 5585 5578 5571 5564 5557 5549 5541 5533 5524 5515 5507 5497 5486 5475 5465 5454 5444 5437 5430 5422 5414 5408 5402 5397 5391 5386 5383 5379 5376 5372 5369 5366 5364 5361 5359 5356 5354 5352 5350 5348 5346
5607 5598 5591 5583 5576 5568 5561 5554 5546 5537 5529 5520 5511 5501 5490 5480 5469 5458 5449 5440 5430 5420 5413 5407 5400 5394 5388 5384 5379 5375 5371 5367 5364 5360 5357 5354 5351 5349 5346 5344 5341 5339 5339 5337
5603 5595 5586 5579 5572 5565 5558 5550 5542 5533 5524 5514 5504 5494 5485 5474 5462 5452 5442 5432 5421 5414 5406 5399 5393 5388 5382 5377 5372 5367 5363 5359 5355 5351 5348 5344 5341 5339 5336 5334 5330 5328 5326 5325